Deer Park, WA
on Sunday, December 30, 2012

Sunday
Previous Day Next Day
Daily Summary
 ActualAverageRecord
Temperature
Mean Temperature °F / °C 25°F / -4°C  
Max Temperature 25°F / -4°C 31°F / -1°C 43°F / 6°C (2011)
Min Temperature 17°F / -8°C 19°F / -7°C -5°F / -20°C (2003)
Degree Days
Heating Degree Days 44 40  
Month to date heating degree days 1007 1183  
Since 1 July heating degree days 2744 3186  
Cooling Degree Days 0 0  
Month to date cooling degree days 0 0  
Year to date cooling degree days 232 187  
Moisture
Dew Point 21°F / -6°C   
Average Humidity 94    
Maximum Humidity 100    
Minimum Humidity 88    
Precipitation
Precipitation 0.00 in / 0.00 cm 0.09 in / 2.29 cm 0.77 in / 1.96 cm (2002)
Month to date precipitation 2.49 2.79  
Year to date precipitation 26.60 22.18  
Wind
Wind Speed 2 mph / 4 km/h   
Max Wind Speed 10 mph / 16 km/h   
Max Gust Speed 13 mph / 21 km/h   
Visibility 8 miles / 14 kilometers   
Events     

Key: T is trace of precipitation, MM is missing value
Source: NWS Daily Summary
Time(PST)TemperatureDew PointHumidity Pressure Visibility Wind DirectionWind SpeedGust SpeedPrecipitationEvents Conditions
12:53 AM 18.0°F / -7.8°C 16.0°F / -8.9°C 92% 30.25 in / 1024.1 hPa 10.0 miles / 16.1 kilometers Calm Calm - N/A   Overcast
1:53 AM 17.1°F / -8.3°C 15.1°F / -9.4°C 92% 30.28 in / 1025.2 hPa 10.0 miles / 16.1 kilometers Calm Calm - N/A   Overcast
2:53 AM 18.0°F / -7.8°C 16.0°F / -8.9°C 92% 30.29 in / 1025.6 hPa 10.0 miles / 16.1 kilometers Calm Calm - N/A   Overcast
3:53 AM 19.0°F / -7.2°C 17.1°F / -8.3°C 92% 30.29 in / 1025.6 hPa 10.0 miles / 16.1 kilometers Calm Calm - N/A   Overcast
4:53 AM 19.0°F / -7.2°C 17.1°F / -8.3°C 92% 30.30 in / 1025.8 hPa 10.0 miles / 16.1 kilometers Calm Calm - N/A   Overcast
5:11 AM 19.4°F / -7.0°C 17.6°F / -8.0°C 93% 30.20 in / 1022.6 hPa 10.0 miles / 16.1 kilometers Calm Calm - N/A   Overcast
5:53 AM 19.0°F / -7.2°C 17.1°F / -8.3°C 92% 30.30 in / 1025.9 hPa 10.0 miles / 16.1 kilometers Calm Calm - N/A   Overcast
6:44 AM 19.4°F / -7.0°C 17.6°F / -8.0°C 93% 30.21 in / 1022.9 hPa 10.0 miles / 16.1 kilometers Calm Calm - N/A   Overcast
6:53 AM 19.9°F / -6.7°C 18.0°F / -7.8°C 92% 30.32 in / 1026.5 hPa 10.0 miles / 16.1 kilometers Calm Calm - N/A   Overcast
7:18 AM 19.4°F / -7.0°C 17.6°F / -8.0°C 93% 30.21 in / 1022.9 hPa 10.0 miles / 16.1 kilometers Calm Calm - N/A   Overcast
7:53 AM 21.0°F / -6.1°C 19.0°F / -7.2°C 92% 30.33 in / 1027.0 hPa 7.0 miles / 11.3 kilometers Calm Calm - N/A   Overcast
8:53 AM 21.9°F / -5.6°C 19.9°F / -6.7°C 92% 30.35 in / 1027.7 hPa 4.0 miles / 6.4 kilometers Calm Calm - N/A   Overcast
9:19 AM 21.2°F / -6.0°C 21.2°F / -6.0°C 100% 30.25 in / 1024.3 hPa 2.5 miles / 4.0 kilometers Calm Calm - N/A   Overcast
9:39 AM 21.2°F / -6.0°C 21.2°F / -6.0°C 100% 30.25 in / 1024.3 hPa 3.0 miles / 4.8 kilometers Calm Calm - N/A   Overcast
9:53 AM 21.9°F / -5.6°C 21.0°F / -6.1°C 96% 30.35 in / 1027.8 hPa 4.0 miles / 6.4 kilometers Calm Calm - N/A   Overcast
10:06 AM 21.2°F / -6.0°C 21.2°F / -6.0°C 100% 30.25 in / 1024.3 hPa 5.0 miles / 8.0 kilometers SSE 3.5 mph / 5.6 km/h - N/A   Overcast
10:42 AM 23.0°F / -5.0°C 21.2°F / -6.0°C 93% 30.25 in / 1024.3 hPa 6.0 miles / 9.7 kilometers Calm Calm - N/A   Overcast
10:53 AM 23.0°F / -5.0°C 21.9°F / -5.6°C 96% 30.35 in / 1027.6 hPa 6.0 miles / 9.7 kilometers Calm Calm - N/A   Overcast
11:25 AM 24.8°F / -4.0°C 23.0°F / -5.0°C 93% 30.25 in / 1024.3 hPa 7.0 miles / 11.3 kilometers Calm Calm - N/A   Overcast
11:53 AM 24.1°F / -4.4°C 23.0°F / -5.0°C 96% 30.35 in / 1027.5 hPa 7.0 miles / 11.3 kilometers Calm Calm - N/A   Overcast
12:41 PM 24.8°F / -4.0°C 23.0°F / -5.0°C 93% 30.24 in / 1023.9 hPa 8.0 miles / 12.9 kilometers South 4.6 mph / 7.4 km/h - N/A   Overcast
12:53 PM 25.0°F / -3.9°C 23.0°F / -5.0°C 92% 30.34 in / 1027.2 hPa 9.0 miles / 14.5 kilometers North - - N/A   Overcast
1:53 PM 25.0°F / -3.9°C 23.0°F / -5.0°C 92% 30.34 in / 1027.4 hPa 9.0 miles / 14.5 kilometers South 3.5 mph / 5.6 km/h - N/A   Overcast
2:53 PM 25.0°F / -3.9°C 23.0°F / -5.0°C 92% 30.34 in / 1027.3 hPa 10.0 miles / 16.1 kilometers South 4.6 mph / 7.4 km/h - N/A   Overcast
3:53 PM 25.0°F / -3.9°C 23.0°F / -5.0°C 92% 30.35 in / 1027.6 hPa 10.0 miles / 16.1 kilometers South 4.6 mph / 7.4 km/h - N/A   Overcast
4:53 PM 25.0°F / -3.9°C 23.0°F / -5.0°C 92% 30.36 in / 1028.0 hPa 10.0 miles / 16.1 kilometers SSW 5.8 mph / 9.3 km/h - N/A   Overcast
5:43 PM 24.8°F / -4.0°C 23.0°F / -5.0°C 93% 30.27 in / 1024.9 hPa 10.0 miles / 16.1 kilometers SSW 5.8 mph / 9.3 km/h - N/A   Overcast
5:53 PM 24.1°F / -4.4°C 23.0°F / -5.0°C 96% 30.37 in / 1028.3 hPa 10.0 miles / 16.1 kilometers SW 6.9 mph / 11.1 km/h - N/A   Overcast
6:32 PM 24.8°F / -4.0°C 23.0°F / -5.0°C 93% 30.27 in / 1024.9 hPa 6.0 miles / 9.7 kilometers SSW 6.9 mph / 11.1 km/h - N/A   Overcast
6:53 PM 24.1°F / -4.4°C 23.0°F / -5.0°C 96% 30.36 in / 1028.1 hPa 7.0 miles / 11.3 kilometers South 5.8 mph / 9.3 km/h - N/A   Overcast
7:29 PM 24.8°F / -4.0°C 21.2°F / -6.0°C 86% 30.27 in / 1024.9 hPa 10.0 miles / 16.1 kilometers SSW 5.8 mph / 9.3 km/h - N/A   Overcast
7:53 PM 24.1°F / -4.4°C 21.9°F / -5.6°C 91% 30.36 in / 1028.0 hPa 10.0 miles / 16.1 kilometers SSW 9.2 mph / 14.8 km/h - N/A   Overcast
8:53 PM 24.1°F / -4.4°C 21.9°F / -5.6°C 91% 30.36 in / 1027.9 hPa 10.0 miles / 16.1 kilometers SSW 5.8 mph / 9.3 km/h - N/A   Overcast
9:53 PM 24.1°F / -4.4°C 21.9°F / -5.6°C 91% 30.36 in / 1028.0 hPa 10.0 miles / 16.1 kilometers Calm Calm - N/A   Overcast
10:22 PM 24.8°F / -4.0°C 21.2°F / -6.0°C 86% 30.27 in / 1024.9 hPa 10.0 miles / 16.1 kilometers Calm Calm - N/A   Overcast
10:53 PM 24.1°F / -4.4°C 21.9°F / -5.6°C 91% 30.38 in / 1028.5 hPa 10.0 miles / 16.1 kilometers Calm Calm - N/A   Overcast
11:53 PM 24.1°F / -4.4°C 21.9°F / -5.6°C 91% 30.37 in / 1028.3 hPa 10.0 miles / 16.1 kilometers SSW 3.5 mph / 5.6 km/h - N/A   Overcast
Moon Phase
Dec. 30 Jan. 04 Jan. 11 Jan. 18 Jan. 26
Sunrise:07:39 AM (PST) Moon Rise:06:54 PM (PST)12/30
Sunset:04:05 PM (PST) Moon Set:08:39 AM (PST)12/30

Copyright © 2014 The Weather Underground, Inc.